This is the latest recevied weather packets stored in our database for station/object W9WRP. If no packets are shown the sender has not sent any weather packets the latest 10 day(s).
| Time | Temp. | Humidity | Pressure | Rain* | Wind** | Luminosity | Snow |
|---|---|---|---|---|---|---|---|
| 1788110303 | 34.44° C | 35% | 1016.9 hPa | 0 mm | - | 584 W/m² | - |
| 1788109998 | 34.44° C | 35% | 1016.9 hPa | 0 mm | - | 573 W/m² | - |
| 1788109692 | 33.89° C | 35% | 1016.9 hPa | 0 mm | - | 563 W/m² | - |
| 1788109392 | 33.89° C | 36% | 1017.1 hPa | 0 mm | - | 117 W/m² | - |
| 1788109085 | 33.89° C | 36% | 1016.8 hPa | 0 mm | - | 328 W/m² | - |
| 1788108781 | 33.89° C | 36% | 1017 hPa | 0 mm | - | 173 W/m² | - |
| 1788108478 | 33.89° C | 36% | 1017.1 hPa | 0 mm | - | 148 W/m² | - |
| 1788108173 | 32.78° C | 37% | 1016.9 hPa | 0 mm | - | 145 W/m² | - |
| 1788107869 | 33.33° C | 37% | 1017.1 hPa | 0 mm | - | 237 W/m² | - |
| 1788107565 | 33.33° C | 37% | 1016.9 hPa | 0 mm | - | 121 W/m² | - |
| 1788107259 | 32.78° C | 38% | 1017.1 hPa | 0 mm | - | 183 W/m² | - |
| 1788106956 | 32.78° C | 38% | 1016.9 hPa | 0 mm | - | 102 W/m² | - |
| 1788106650 | 32.78° C | 38% | 1017.1 hPa | 0 mm | - | 78 W/m² | - |
| 1788106344 | 32.78° C | 38% | 1017 hPa | 0 mm | - | 179 W/m² | - |
| 1788106040 | 32.78° C | 38% | 1016.8 hPa | 0 mm | - | 129 W/m² | - |
| 1788105735 | 32.78° C | 38% | 1016.8 hPa | 0 mm | - | 269 W/m² | - |
| 1788105431 | 32.22° C | 38% | 1016.8 hPa | 0 mm | - | 315 W/m² | - |
| 1788105127 | 32.22° C | 40% | 1016.9 hPa | 0 mm | - | 190 W/m² | - |
| 1788104822 | 32.22° C | 41% | 1016.8 hPa | 0 mm | - | 87 W/m² | - |
| 1788104517 | 31.67° C | 40% | 1016.9 hPa | 0 mm | - | 240 W/m² | - |
| 1788104214 | 31.67° C | 41% | 1016.9 hPa | 0 mm | - | 160 W/m² | - |
| 1788103914 | 31.67° C | 42% | 1016.5 hPa | 0 mm | - | 85 W/m² | - |
| 1788103613 | 31.11° C | 43% | 1016.8 hPa | 0 mm | - | 160 W/m² | - |
| 1788103312 | 31.11° C | 43% | 1016.8 hPa | 0 mm | - | 58 W/m² | - |
| 1788103007 | 31.11° C | 44% | 1016.9 hPa | 0 mm | - | 57 W/m² | - |
* Rain latest hour (hover to see other rain measurements)
** Current wind speed in m/s (hover to see current wind gust speed)